Caldwell, NJ

1:32 PM EDT on August 18, 2019 (GMT -0400)
Essex County

Weather History for KCDW - June, 2019

Change the Weather History Date:

Tuesday, June 4, 2019

  Actual Average Record
Temperature  
Mean Temperature 60 °F -  
Max Temperature 73 °F 76 °F 88 °F (1989)
Min Temperature 48 °F 52 °F 41 °F (1965)
Degree Days  
Heating Degree Days 4    
Growing Degree Days 10 (Base 50)    
Moisture  
Dew Point 41 °F    
Average Humidity 50    
Maximum Humidity 83    
Minimum Humidity 29    
Precipitation  
Precipitation 0.00 in - - ()
Sea Level Pressure  
Sea Level Pressure 30.09 in    
Wind  
Wind Speed 3 mph (West)    
Max Wind Speed 12 mph    
Max Gust Speed 17 mph    
Visibility 10 miles    
Events      
Averages and records for this station are not official NWS values.
T = Trace of Precipitation, MM = Missing Value Source: NWS Daily Summary

Daily Weather History Graph

Daily Weather History Graph

Search for Another Location

Airport or City:

Astronomy

Jun. 04, 2019 Rise Set
Actual Time 5:26 AM EDT 8:24 PM EDT
Civil Twilight 4:53 AM EDT 8:57 PM EDT
Nautical Twilight 4:11 AM EDT 9:39 PM EDT
Astronomical Twilight 3:23 AM EDT 10:28 PM EDT
Moon 6:33 AM EDT (6/4) 9:50 PM EDT (6/4)
Length of Visible Light 16h 03m
Length of Day
14h 58m
New Moon, 2% of the Moon is Illuminated
Jun 4
New Moon
Jun 10
First Quarter
Jun 17
Full
Jun 25
Last Quarter
Jul 2
New

Hourly Weather History & Observations

Time (EDT) Temp. Dew Point Humidity Pressure Visibility Wind Dir Wind Speed Gust Speed Precip Events Conditions
12:53 AM 52.0 °F 44.1 °F 74% 30.08 in 10.0 mi Calm Calm - N/A   Clear
1:53 AM 51.1 °F 44.1 °F 77% 30.09 in 10.0 mi South 3.5 mph - N/A   Clear
2:53 AM 51.1 °F 44.1 °F 77% 30.10 in 10.0 mi Calm Calm - N/A   Clear
3:53 AM 50.0 °F 43.0 °F 77% 30.10 in 10.0 mi Calm Calm - N/A   Clear
4:53 AM 48.9 °F 43.0 °F 80% 30.12 in 10.0 mi Calm Calm - N/A   Clear
5:53 AM 48.9 °F 44.1 °F 83% 30.13 in 10.0 mi Calm Calm - N/A   Clear
6:53 AM 52.0 °F 45.0 °F 77% 30.15 in 10.0 mi Calm Calm - N/A   Clear
7:53 AM 57.0 °F 39.9 °F 53% 30.17 in 10.0 mi Calm Calm - N/A   Clear
8:53 AM 60.1 °F 39.9 °F 47% 30.17 in 10.0 mi Variable 5.8 mph - N/A   Clear
9:53 AM 64.0 °F 37.0 °F 37% 30.17 in 10.0 mi NW 11.5 mph 17.3 mph N/A   Clear
10:53 AM 64.9 °F 37.9 °F 37% 30.16 in 10.0 mi NNW 10.4 mph - N/A   Clear
11:53 AM 66.0 °F 39.0 °F 37% 30.14 in 10.0 mi Calm Calm - N/A   Partly Cloudy
12:53 PM 69.1 °F 37.9 °F 32% 30.12 in 10.0 mi West 11.5 mph - N/A   Scattered Clouds
1:53 PM 70.0 °F 36.0 °F 29% 30.09 in 10.0 mi Variable 6.9 mph 17.3 mph N/A   Clear
2:53 PM 72.0 °F 39.0 °F 30% 30.06 in 10.0 mi Variable 3.5 mph - N/A   Clear
3:53 PM 73.0 °F 39.0 °F 29% 30.05 in 10.0 mi West 9.2 mph - N/A   Partly Cloudy
5:53 PM 73.0 °F 39.9 °F 30% 30.03 in 10.0 mi West 8.1 mph - N/A   Clear
6:53 PM 72.0 °F 41.0 °F 33% 30.03 in 10.0 mi WSW 8.1 mph - N/A   Mostly Cloudy
7:53 PM 71.1 °F 42.1 °F 35% 30.02 in 10.0 mi Variable 4.6 mph - N/A   Clear
8:53 PM 68.0 °F 42.1 °F 39% 30.02 in 10.0 mi Variable 3.5 mph - N/A   Clear
9:53 PM 66.0 °F 43.0 °F 43% 30.02 in 10.0 mi Calm Calm - N/A   Mostly Cloudy
10:53 PM 66.0 °F 42.1 °F 42% 30.01 in 10.0 mi Variable 4.6 mph - N/A   Mostly Cloudy
11:53 PM 64.0 °F 43.0 °F 46% 30.01 in 10.0 mi Variable 4.6 mph - N/A   Clear